{"data":{"norad_id":46753,"epoch":"2026-05-25T00:00:02.000160Z","epoch_age_seconds":74483,"freshness":"FRESH","line1":"1 46753U 20074Q   26145.00002315  .00126057  00000+0  56511-3 0  9998","line2":"2 46753  53.0392 264.7002 0006838 293.6745  57.6298 15.83275323  5901","mean_motion":15.83275323,"eccentricity":0.0006838,"inclination_deg":53.0392,"raan_deg":264.7002,"arg_perigee_deg":293.6745,"mean_anomaly_deg":57.6298,"bstar":0.00056511,"rev_number":590,"period_min":90.950700682398,"perigee_km":316.60441875027,"apogee_km":325.76641208559,"semimajor_km":6699.3224154179,"source":"CELESTRAK","updated_at":"2026-05-25T13:38:16.519212Z"}}